Location: Unspecified
(35.7250°N, 0.0000°E)
Time: 02:22:10
(UTC+00:00)

SR - Pass Details

Date: 23 June 2019
Orbit: 580 x 876 km, 66.7° (Epoch: 22 July)

Event Time Altitude Azimuth Distance (km) Brightness Sun altitude
Exits shadow 04:00:19 - 251° (WSW) 1,932 ? -8.4°
Reaches altitude 10° 04:00:27 10° 252° (WSW) 1,891 ? -8.3°
Maximum altitude 04:03:49 23° 306° (NW) 1,255 ? -7.8°
Drops below altitude 10° 04:07:15 10° 359° (N) 1,920 ? -7.2°
Sets 04:09:55 0° 14° (NNE) 2,851 ? -6.8°
